This demonstration page uses our WeatherBlox Daily Observations layout. Learn more.

Left ArrowRight Arrow

38.80484, -77.04692

Hourly Observations for February 19, 2021

Temp ( °F °C ) Dew Point ( °F °C ) Humidity (%) Winds ( mph kmh ) Pressure ( in mb ) Visibility ( mi km ) Precip ( " mm )
12:52 am 00:52 Cloudy with Light Freezing Drizzle 31 -0.6 28 -2.2 89 89 N 9 15 30.19 1022 5 8 0.00 0.00
1:00 am 01:00 Cloudy with Light Freezing Drizzle 31 -0.6 28 -2.2 89 89 NNE 10 17 30.17 1022 4 6 0.00 0.00
1:28 am 01:28 Cloudy with Light Freezing Drizzle 31 -0.6 28 -2.2 89 89 N 13 20 30.17 1022 4 6 0.00 0.00
1:52 am 01:52 Cloudy with Light Freezing Drizzle 31 -0.6 28 -2.2 89 89 N 12 19 30.17 1022 6 10 0.00 0.00
2:41 am 02:41 Cloudy with Light Freezing Drizzle 31 -0.6 29 -1.7 92 92 N 10 17 30.17 1022 5 8 0.00 0.00
2:52 am 02:52 Cloudy with Light Freezing Drizzle 31 -0.6 29 -1.7 92 92 N 9 15 30.16 1021 4 6 0.00 0.00
3:04 am 03:04 Cloudy with Light Freezing Drizzle 31 -0.6 29 -1.7 92 92 N 8 13 30.16 1021 4 6 0.00 0.00
3:37 am 03:37 Cloudy with Light Freezing Drizzle 31 -0.6 29 -1.7 92 92 N 8 13 30.15 1021 4 6 0.00 0.00
3:52 am 03:52 Cloudy with Light Freezing Drizzle 31 -0.6 29 -1.7 92 92 N 8 13 30.13 1020 4 6 0.00 0.00
4:34 am 04:34 Cloudy with Light Freezing Drizzle 31 -0.6 28 -2.2 89 89 NNW 13 20 30.15 1021 7 11 0.00 0.00
4:39 am 04:39 Cloudy 31 -0.6 28 -2.2 89 89 N 13 20 30.14 1021 7 11 0.00 0.00
4:52 am 04:52 Cloudy 31 -0.6 28 -2.2 89 89 N 13 20 30.14 1021 8 13 0.00 0.00
5:35 am 05:35 Cloudy 31 -0.6 28 -2.2 89 89 N 10 17 30.16 1021 10 16 0.00 0.00
5:52 am 05:52 Cloudy 31 -0.6 28 -2.2 89 89 N 10 17 30.14 1021 7 11 0.00 0.00
6:11 am 06:11 Cloudy 31 -0.6 28 -2.2 89 89 N 10 17 30.15 1021 8 13 0.00 0.00
6:52 am 06:52 Cloudy with Mist and Fog 31 -0.6 29 -1.7 92 92 NNW 10 17 30.14 1021 6 10 0.00 0.00
7:19 am 07:19 Cloudy with Light Freezing Drizzle 31 -0.6 29 -1.7 92 92 N 9 15 30.14 1021 3 4 0.00 0.00
7:47 am 07:47 Cloudy with Light Freezing Drizzle 30 -1 28 -2 93 93 NNW 12 19 30.18 1022 2 2 0.00 0.00
7:52 am 07:52 Cloudy with Light Freezing Drizzle 32 0 29 -1.7 88 88 NNW 13 20 30.17 1022 2 2 0.01 0.25
7:59 am 07:59 Cloudy with Light Freezing Drizzle 31 -0.6 29 -1.7 92 92 NNW 12 19 30.17 1022 1 2 0.00 0.00
8:08 am 08:08 Cloudy with Light Wintry Mix 31 -0.6 29 -1.7 92 92 N 10 17 30.17 1022 2 3 0.01 0.25
8:26 am 08:26 Cloudy with Light Snow 31 -0.6 29 -1.7 92 92 N 10 17 30.16 1021 2 3 0.01 0.25
8:38 am 08:38 Cloudy with Light Snow 32 0 29 -1.7 88 88 N 10 17 30.15 1021 1 1 0.02 0.51
8:43 am 08:43 Cloudy with Light Snow 32 0 30 -1.1 92 92 N 9 15 30.16 1021 2 2 0.02 0.51
8:52 am 08:52 Cloudy with Light Snow 32 0 29 -1.7 88 88 N 14 22 30.15 1021 3 5 0.02 0.51
9:52 am 09:52 Cloudy 32 0 29 -1.7 88 88 N 12 19 30.14 1021 9 14 0.01 0.25
10:00 am 10:00 Cloudy 33 0.6 29 -1.7 85 85 N 9 15 30.16 1021 10 16 0.00 0.00
10:48 am 10:48 Cloudy with Drizzle 34 1 30 -1 87 87 NNW 12 19 30.15 1021 3 4 0.00 0.00
10:52 am 10:52 Cloudy with Drizzle 33 0.6 30 -1.1 89 89 NNW 9 15 30.15 1021 3 4 0.00 0.00
11:11 am 11:11 Cloudy with Drizzle 33 0.6 31 -0.6 92 92 NNW 7 11 30.15 1021 3 5 0.00 0.00
11:22 am 11:22 Cloudy with Drizzle 33 0.6 31 -0.6 92 92 N 8 13 30.13 1020 5 8 0.00 0.00
11:52 am 11:52 Cloudy 35 1.7 31 -0.6 85 85 N 10 17 30.13 1020 10 16 0.00 0.00
12:52 pm 12:52 Cloudy 36 2.2 31 -0.6 82 82 NNW 10 17 30.12 1020 10 16 0.00 0.00
1:52 pm 13:52 Cloudy 36 2.2 30 -1.1 79 79 N 14 22 30.09 1019 10 16 0.00 0.00
2:52 pm 14:52 Mostly Cloudy 39 3.9 31 -0.6 73 73 N 14 22 30.08 1019 10 16 0.00 0.00
3:52 pm 15:52 Mostly Cloudy 39 3.9 30 -1.1 70 70 NNW 14 22 30.09 1019 10 16 0.00 0.00
4:52 pm 16:52 Mostly Cloudy 40 4.4 29 -1.7 65 65 NW 15 24 30.11 1020 10 16 0.00 0.00
5:52 pm 17:52 Mostly Cloudy 38 3.3 28 -2.2 68 68 NW 13 20 30.12 1020 10 16 0.00 0.00
6:52 pm 18:52 Cloudy 37 2.8 28 -2.2 70 70 NNW 14 22 30.12 1020 10 16 0.00 0.00
7:52 pm 19:52 Cloudy 37 2.8 27 -2.8 67 67 NNW 12 19 30.14 1021 10 16 0.00 0.00
8:52 pm 20:52 Mostly Cloudy 36 2.2 24 -4.4 62 62 NW 10 17 30.15 1021 10 16 0.00 0.00
9:52 pm 21:52 Mostly Cloudy 35 1.7 22 -5.6 59 59 NNW 16 26 30.16 1021 10 16 0.00 0.00
10:52 pm 22:52 Mostly Cloudy 33 0.6 21 -6.1 61 61 NNW 21 33 30.17 1022 10 16 0.00 0.00
11:52 pm 23:52 Mostly Cloudy 32 0 20 -6.7 61 61 NNW 16 26 30.18 1022 10 16 0.00 0.00

Powered by AerisWeather